STARLINK-1583, 46064

Orbit data source: Space-Track

STARLINK-1583, 46064 is a payload satellite owned by SpaceX/Seattle (US) in LEO that was launched on Fri, 07 Aug 2020 UTC via an FALCON 9 launch vehicle from the Air Force Eastern Test Range (AFETR). Payload-class satellites include a variety of spacecraft equipped with specific instruments for various scientific and technological missions. These include communications satellites like Starlink; space stations such as the ISS; scientific satellites like the Hubble; Earth observation satellites from companies like Planet Labs, Umbra, and HawkEye 360; GPS; miniature CubeSats for education and research; and military/defense satellites.

Loading next visibility...
Identifier
46064, 2020-055AP
Orbit
LEO
Country
Flag of USUS
Related business
Manufacturer
SpaceX/Seattle
Mission
Operational Commercial Communications
Bus & Motor
STARLINK, Unknown motor
Mass
260 kg wet, ~248 kg dry
Launch date (UTC)
2020-08-07 (5 years ago)
Launch vehicle
FALCON 9
Launch site
Air Force Eastern Test Range (AFETR)
Object type
Payload
Rocket body
Debris
Shape & HBR
Box + 1 Pan, 10.1 m
Radar Cross Section
13.562 m², Large (>1 m²)

Expand to show TLE details & history
Last TLE update: 13 hours ago

TLE from 13 hours ago
0 STARLINK-1583
1 46064U 20055AP  25297.63021296  .00002345  00000-0  17620-3 0  9999
2 46064  53.0551   7.4135 0001262  91.0648 269.0486 15.06408947288524
Epoch: 2025-10-24T15:07Z
TLE epoch observation values (Epoch: 2025-10-24T15:07:30.399Z)
Latitude
-0°
Longitude
107.26448°
Altitude
548.078 km
Speed
7.589 km/s
True Right ascension
00h 29m 39s
True Declination
0° 00' 00"
Sunlit
Object was in full shadow at epoch
Visualization orbit readout
Latitude
Unknown
Longitude
Unknown
Altitude
Unknown
Speed
Unknown
Apparent Right ascension
Unknown
Apparent Declination
Unknown
Sunlit
N/A
Visualization observer readout
Local Sidereal Time
23:04:32
Azimuth
Unknown
Elevation
Unknown
Doppler factor
Unknown
Orbital elements
Apogee altitude
548.329 km
Perigee altitude
546.581 km
Semi-major axis
6,925.592 km
Eccentricity
0.00013
Inclination
53.0551°
RAAN
7.4135°
Arg. of periapsis
91.0648°
True anomaly
269.03414°
Mean anomaly
269.0486°
Eccentric anomaly
269.04137°
Mean motion
3.76581 °/min
Orbital period
95.6 mins
BSTAR
0.0001762
Loading maneuver chart data...
Computing Atmospheric mass density...

Documentation

Showing up to 5 results
|